This demonstration page uses our WeatherBlox Daily Observations layout. Learn more.

Left ArrowRight Arrow

34.74481, -87.66753

Hourly Observations for February 19, 2021

Temp ( °F °C ) Dew Point ( °F °C ) Humidity (%) Winds ( mph kmh ) Pressure ( in mb ) Visibility ( mi km ) Precip ( " mm )
12:05 am 00:05 Partly Cloudy 30 -1.1 18 -7.8 61 61 N 10 17 30.32 1027 10 16 0.00 0.00
12:32 am 00:32 Mostly Cloudy 28 -2.2 18 -7.8 66 66 N 12 19 30.33 1027 10 16 0.00 0.00
12:53 am 00:53 Cloudy 28 -2.2 17 -8.3 63 63 N 8 13 30.30 1026 10 16 0.00 0.00
1:53 am 01:53 Partly Cloudy 26 -3.3 16 -8.9 66 66 N 10 17 30.32 1027 10 16 0.00 0.00
2:53 am 02:53 Clear 24 -4.4 14 -10 65 65 N 6 9 30.31 1026 10 16 0.00 0.00
3:53 am 03:53 Clear 23 -5 14 -10 68 68 N 7 11 30.30 1026 10 16 0.00 0.00
4:53 am 04:53 Mostly Clear 22 -5.6 13 -10.6 68 68 N 6 9 30.33 1027 9 14 0.00 0.00
5:53 am 05:53 Clear 21 -6.1 12 -11.1 68 68 VRB 3 6 30.35 1028 9 14 0.00 0.00
6:53 am 06:53 Sunny 20 -6.7 11 -11.7 68 68 NNW 5 7 30.37 1028 7 11 0.00 0.00
7:53 am 07:53 Mostly Sunny 21 -6.1 11 -11.7 65 65 NNE 7 11 30.39 1029 7 11 0.00 0.00
8:08 am 08:08 Mostly Cloudy 21 -6.1 12 -11.1 68 68 NNE 8 13 30.42 1030 8 13 0.00 0.00
8:21 am 08:21 Cloudy 21 -6.1 12 -11.1 68 68 NE 8 13 30.43 1031 7 11 0.00 0.00
8:53 am 08:53 Cloudy 22 -5.6 13 -10.6 68 68 NNE 7 11 30.41 1030 8 13 0.00 0.00
9:53 am 09:53 Cloudy 25 -3.9 15 -9.4 66 66 NNE 8 13 30.41 1030 8 13 0.00 0.00
10:15 am 10:15 Partly Cloudy 27 -2.8 16 -8.9 63 63 N 7 11 30.44 1031 8 13 0.00 0.00
10:53 am 10:53 Sunny 28 -2.2 17 -8.3 63 63 NE 5 7 30.41 1030 9 14 0.00 0.00
11:53 am 11:53 Sunny 33 0.6 18 -7.8 54 54 VRB 3 6 30.40 1029 10 16 0.00 0.00
12:53 pm 12:53 Sunny 33 0.6 18 -7.8 54 54 Calm 30.37 1029 10 16 0.00 0.00
1:53 pm 13:53 Sunny 34 1.1 19 -7.2 54 54 S 3 6 30.37 1028 10 16 0.00 0.00
2:53 pm 14:53 Sunny 35 1.7 21 -6.1 57 57 SSE 7 11 30.37 1028 9 14 0.00 0.00
3:53 pm 15:53 Sunny 36 2.2 22 -5.6 57 57 SE 6 9 30.36 1028 10 16 0.00 0.00
4:53 pm 16:53 Sunny 36 2.2 20 -6.7 52 52 SE 5 7 30.35 1028 10 16 0.00 0.00
5:53 pm 17:53 Clear 35 1.7 18 -7.8 50 50 Calm 30.38 1029 10 16 0.00 0.00
6:53 pm 18:53 Clear 32 0 19 -7.2 59 59 NNE 3 6 30.39 1029 10 16 0.00 0.00
7:53 pm 19:53 Clear 31 -0.6 18 -7.8 59 59 Calm 30.41 1030 10 16 0.00 0.00
8:53 pm 20:53 Clear 29 -1.7 17 -8.3 61 61 Calm 30.42 1030 10 16 0.00 0.00
9:53 pm 21:53 Clear 29 -1.7 16 -8.9 58 58 N 3 6 30.41 1030 10 16 0.00 0.00
10:53 pm 22:53 Clear 24 -4.4 15 -9.4 68 68 Calm 30.42 1030 10 16 0.00 0.00
11:53 pm 23:53 Clear 23 -5 16 -8.9 74 74 NNW 5 7 30.42 1030 10 16 0.00 0.00

Powered by AerisWeather